TIME,DELAY(SENSOR),PRES,T(CTD),SAL,OXYGEN,RAWTEMP,T(OPTODE),TCPHASE,FLUOR,BETA(BETA700),BETA(BETA412),BETA(BETA440),CDOM,C(CSC),ED(ED412.40),ED(ED444.00),ED(ED489.70),ED(ED554.30),LU(LU411.80),LU(LU443.40),LU(LU489.60),LU(LU554.10),COMP,TILTX,TILTX(TILTY),CHECK
1365198411,5807,497.3699951171875000,6.6024999618530270,34.1139984130859400,76.1829223632812500,600.1392822265625000,6.5797648429870605,49.3625297546386700,51,103,86,81,79,14912,2147747593,2147425133,2148008512,2147872219,2147626230,2147079945,2148248457,2147198436,3176,4,13,51546
1365198554,5809,486.8999938964844000,6.6683001518249510,34.1116981506347660,80.1243362426757800,598.0139770507812000,6.6484050750732420,48.8653106689453100,51,102,90,80,79,14909,2147747867,2147424146,2148007990,2147870244,2147627090,2147075657,2148247798,2147199652,1555,4,13,53966
1365198690,5806,475.2399902343750000,6.8818998336791990,34.0984001159668000,90.1361465454101600,591.0280151367188000,6.8737130165100100,47.6187705993652340,52,102,88,79,78,14911,2147746249,2147422848,2148007177,2147871076,2147624155,2147079588,2148244452,2147202221,706,4,13,34054
1365198811,5809,464.8200073242187500,7.0640001296997070,34.0872993469238300,98.9425735473632800,585.3770141601562000,7.0556368827819820,46.5775985717773440,51,102,89,78,78,14912,2147745435,2147426998,2148007908,2147873938,2147626477,2147079021,2148246070,2147199506,3238,4,13,41681
1365198945,5809,452.9400024414062500,7.3990001678466800,34.0940017700195300,107.3963012695312500,575.2409057617188000,7.3812179565429690,45.5397796630859400,51,102,86,79,78,14910,2147745005,2147425325,2148007798,2147874020,2147627062,2147081206,2148243766,2147193289,3433,4,13,16804
1365199066,5808,442.0100097656250000,7.7062997817993160,34.0825004577636700,117.6097030639648400,566.0106811523438000,7.6769027709960940,44.3797111511230500,51,103,87,80,75,14914,2147745536,2147422235,2148005092,2147874057,2147619629,2147082733,2148240548,2147199698,1979,4,13,4965
1365199179,5809,431.2900085449219000,7.9004998207092285,34.0792007446289060,130.3385009765625000,559.6505126953125000,7.8802218437194820,43.0864410400390600,50,104,89,80,76,14909,2147744731,2147425846,2148008073,2147872000,2147619373,2147089234,2148238509,2147200155,1534,4,13,17438
1365199300,5806,419.8599853515625000,8.0642004013061520,34.0744018554687500,139.7064971923828000,554.1156005859375000,8.0568771362304690,42.1699409484863300,50,103,84,79,75,14913,2147743744,2147425846,2148005385,2147871058,2147619730,2147088210,2148236571,2147202258,313,3,13,33535
1365199410,5807,409.5000000000000000,8.4142999649047850,34.0752983093261700,147.9568939208984400,543.5263061523438000,8.3941402435302730,41.2946510314941400,50,104,89,80,74,14914,2147739264,2147427282,2148005668,2147871753,2147619401,2147087670,2148235410,2147200630,2763,4,14,51596
1365199534,5808,398.2900085449219000,8.7349996566772460,34.0787010192871100,159.9114990234375000,533.5479125976562000,8.7111206054687500,40.1721801757812500,50,106,90,80,73,14904,2147741330,2147424265,2148004242,2147873472,2147616512,2147090148,2148235456,2147201417,1843,4,13,54540
1365199655,5810,387.8299865722656000,8.9628000259399410,34.0848999023437500,169.9024047851562500,526.1411743164062000,8.9458999633789060,39.2948989868164060,49,102,87,81,73,14901,2147737371,2147425554,2148006381,2147872411,2147616155,2147091812,2148232237,2147202249,2202,4,13,16756
1365199790,5812,376.4400024414062500,9.2686004638671880,34.0848007202148440,176.5447998046875000,516.8989257812500000,9.2382783889770500,38.6600990295410160,49,103,87,80,73,14913,2147737718,2147422930,2148007744,2147872128,2147616082,2147094802,2148230317,2147202916,1439,4,13,60541
1365199922,5804,365.9200134277344000,9.4507999420166020,34.0946998596191400,182.1233062744140600,510.5873107910156000,9.4375791549682620,38.1657104492187500,49,105,86,80,72,14912,2147736576,2147426413,2148007250,2147873316,2147615213,2147094930,2148233344,2147206116,363,3,13,60353
1365200109,5808,351.6400146484375000,9.8859996795654300,34.1045989990234400,190.8542022705078000,496.7361145019531000,9.8739595413208000,37.3484611511230500,49,104,88,81,71,14910,2147736987,2147427913,2148008338,2147872832,2147612032,2147098066,2148230025,2147198381,1987,3,13,8703
1365200233,5810,339.7000122070312500,10.0483999252319340,34.1040992736816400,194.6392059326172000,491.7290954589844000,10.0313796997070310,37.0202293395996100,49,105,85,79,71,14915,2147733586,2147427154,2148012068,2147872292,2147610313,2147096868,2148227236,2147203684,671,3,13,49378
1365200343,5809,328.5499877929687500,10.2430000305175780,34.1147994995117200,197.5066986083984400,485.1906127929687500,10.2366895675659180,36.7293205261230500,49,104,87,80,71,14915,2147734372,2147428306,2148018614,2147873270,2147605065,2147098989,2148228562,2147202541,2734,3,13,20808
1365200444,5807,318.1300048828125000,10.5418996810913090,34.1225013732910160,201.6596984863281200,475.4879150390625000,10.5408401489257810,36.3107681274414060,49,104,87,79,70,14915,2147733531,2147432429,2148022884,2147872283,2147607652,2147100617,2148227236,2147200566,1377,3,13,19373
1365200554,5807,306.8900146484375000,10.7744998931884770,34.1253013610839840,199.8321075439453000,467.6557922363281000,10.7859201431274410,36.2932090759277340,49,103,87,79,70,14904,2147732489,2147432822,2148030674,2147870811,2147606326,2147110720,2148227867,2147203300,3138,3,15,5771
1365200664,5807,296.4500122070312500,11.1583003997802730,34.1301994323730500,200.7879943847656200,456.0387878417969000,11.1487503051757810,36.0431213378906250,49,106,86,80,70,14907,2147733796,2147437467,2148039753,2147873005,2147605915,2147113133,2148236617,2147205092,2048,3,13,38017
1365200787,5806,285.7699890136719000,11.5781002044677730,34.1472015380859400,203.4046936035156200,441.9424133300781000,11.5879602432250980,35.6544113159179700,49,102,87,80,69,14906,2147731565,2147441901,2148052882,2147871552,2147605083,2147116233,2148237056,2147202102,1400,4,14,14023
1365200930,5808,275.3299865722656000,12.5555000305175780,34.1940002441406250,204.5876007080078000,411.1007080078125000,12.5452299118042000,35.0921211242675800,48,103,88,81,68,14910,2147730368,2147457718,2148081069,2147873069,2147598464,2147131885,2148246573,2147209234,988,3,14,7590
1365201098,5805,262.8900146484375000,13.5858001708984380,34.2818984985351560,209.1268005371093800,377.8938903808594000,13.5709695816040040,34.3099708557128900,47,107,87,80,68,14911,2147728246,2147474441,2148124416,2147871195,2147591515,2147148873,2148264603,2147206866,1907,3,13,30858
1365201219,5809,251.4799957275390600,13.7646999359130860,34.2846984863281250,216.7761993408203000,371.7066955566406000,13.7615900039672850,33.7833709716796900,48,103,87,79,68,14904,2147732763,2147499940,2148176420,2147873161,2147593755,2147168219,2148289901,2147207625,253,3,14,32255
1365201332,5807,240.3699951171875000,14.5395002365112300,34.3541984558105500,216.3101959228515600,346.3468933105469000,14.5415096282958980,33.4283790588378900,49,103,86,81,67,14909,2147738331,2147537243,2148252763,2147873252,2147599981,2147200338,2148328585,2147212827,2698,3,15,22152
1365201453,5807,229.9900054931640600,15.5385999679565430,34.4697990417480500,216.1036987304687500,312.4778137207031000,15.5802001953125000,32.9411201477050800,48,103,86,80,65,14894,2147736484,2147534336,2148213494,2147873124,2147591789,2147195328,2148299108,2147215698,2020,3,14,15013
1365201607,5808,218.3999938964843800,16.4151000976562500,34.5835990905761700,218.2044982910156200,284.8655090332031000,16.4251403808593750,32.4293899536132800,48,103,87,80,65,14895,2147774016,2147692534,2148519725,2147873554,2147600374,2147296484,2148447634,2147230628,613,3,13,26729
1365201763,5808,207.6699981689453000,17.2660999298095700,34.6902999877929700,214.1504058837890600,257.3977050781250000,17.2645797729492200,32.2589988708496100,49,108,90,79,65,14895,2147801700,2147758473,2148598701,2147872978,2147608804,2147344237,2148481481,2147232054,2474,3,15,35720
1365201906,5807,198.3800048828125000,18.0079994201660160,34.7935981750488300,213.4734039306640600,232.8511962890625000,18.0142707824707030,31.9523696899414060,50,106,86,81,66,14886,2147811648,2147743332,2148516900,2147874048,2147610907,2147345920,2148442962,2147228553,910,3,15,4865
1365201992,5809,193.9499969482422000,18.6025009155273440,34.8726997375488300,213.4178009033203000,214.3811035156250000,18.5783195495605470,31.7000102996826170,55,108,87,80,65,14878,2147868260,2147882724,2148749952,2147875227,2147634294,2147438875,2148554761,2147240731,536,2,15,21436
1365202102,5810,189.8699951171875000,19.1611995697021500,34.9435997009277340,212.9230957031250000,196.7953948974609400,19.1154804229736330,31.4859695434570300,60,109,87,81,64,14883,2147958070,2148106898,2149119442,2147875684,2147667867,2147569261,2148731264,2147255140,2812,3,15,31790
1365202234,5808,186.0000000000000000,19.2656993865966800,34.9641990661621100,213.4537963867187500,192.1584930419922000,19.2571601867675780,31.3941593170166000,62,113,87,82,63,14870,2148040950,2148272539,2149364342,2147876662,2147701056,2147674770,2148851318,2147265298,3189,3,15,13847
1365202331,5809,181.6999969482422000,19.5359992980957030,35.0026016235351560,212.5222930908203000,179.6882019042968800,19.6382808685302730,31.2750701904296880,66,110,87,80,62,14872,2148106587,2148355803,2149449069,2147876544,2147729664,2147718445,2148894665,2147269833,3027,2,15,32727
1365202419,5809,177.2700042724609400,19.9745006561279300,35.0629005432128900,214.7630004882812500,169.1990051269531200,19.9590091705322270,31.0136699676513670,75,117,89,82,63,14858,2148253065,2148631798,2149860598,2147879990,2147786870,2147877677,2149088649,2147282166,1945,2,16,45343
1365202496,5806,173.4199981689453000,20.1222000122070300,35.0834007263183600,215.7850036621093800,164.3267974853515600,20.1080398559570300,30.8945503234863280,76,115,86,82,64,14866,2148387218,2148832658,2150130011,2147880996,2147838363,2147987218,2149212690,2147291273,1555,2,15,37559
1365202573,5808,169.5899963378906200,20.4354991912841800,35.1268997192382800,217.1208038330078000,154.5408935546875000,20.4074993133544920,30.6938800811767580,84,122,92,80,61,14847,2148395556,2148782875,2149989869,2147881856,2147845065,2147951616,2149127533,2147292169,1149,2,15,24410
1365202663,5807,165.5599975585937500,20.5167007446289060,35.1453018188476560,219.0218963623047000,151.3231048583984400,20.5060005187988280,30.5524997711181640,84,120,89,83,63,14846,2148773750,2149423808,2150928658,2147886107,2148000585,2148303241,2149555849,2147319908,352,2,15,25741
1365202751,5807,161.8999938964843800,20.7947006225585940,35.1692008972168000,219.4263000488281200,142.6596984863281200,20.7713298797607420,30.4169502258300780,94,121,89,82,63,14838,2148536585,2148892498,2150069348,2147879643,2147902473,2147988406,2149130944,2147288557,45,2,15,35383
1365202861,5808,158.1499938964843800,20.9246006011962900,35.1851005554199200,220.7799987792968800,137.9743957519531200,20.9148807525634770,30.2860507965087900,100,118,91,82,61,14832,2149177737,2149925860,2151530578,2147887259,2148161563,2148525659,2149780160,2147341714,2630,2,16,53429
1365202973,5808,153.5800018310547000,21.0377998352050780,35.1845016479492200,221.5245971679687500,134.1007995605468800,21.0336093902587900,30.1973590850830080,106,121,88,82,63,14819,2149796909,2150752246,2152555684,2147898194,2148403803,2148924141,2150210368,2147377252,2290,2,15,40761
1365203050,5809,149.3200073242187500,21.1453990936279300,35.1880989074707000,222.1743927001953000,130.7093963623047000,21.1375904083251950,30.1201896667480470,111,126,90,83,62,14817,2150384027,2151487085,2153438345,2147903588,2148618304,2149233590,2150541430,2147408064,2258,2,15,36834
1365203127,5807,145.0200042724609400,21.2852993011474600,35.1982994079589840,222.6788940429687500,125.8859024047851600,21.2855205535888670,30.0317897796630860,113,122,90,82,61,14812,2151321115,2152606546,2154747062,2147913874,2148965110,2149741037,2151054043,2147455634,1737,2,16,27165
1365203193,5808,141.4400024414062500,21.4402008056640620,35.2111015319824200,223.3484954833984400,120.7172012329101600,21.4441108703613280,29.9308204650878900,119,124,92,82,61,14803,2150015405,2150459812,2151631753,2147896045,2148468278,2148697243,2149767917,2147353188,1211,2,15,2902
1365203272,5808,137.5800018310547000,21.5858001708984380,35.2229003906250000,224.5516967773437500,116.4783020019531200,21.5742301940917970,29.8158607482910160,123,125,91,82,60,14805,2152847990,2154158491,2156306514,2147926208,2149534162,2150403172,2151658715,2147511469,48,2,15,25862
1365203360,5808,133.8999938964843800,21.7226009368896500,35.2388992309570300,225.4971923828125000,111.9655990600586000,21.7128105163574220,29.7105007171630860,122,125,91,83,61,14800,2153654235,2154861211,2156923785,2147939675,2149831808,2150640969,2151790482,2147532388,3170,2,15,49099
1365203470,5808,130.2200012207031200,22.0118007659912100,35.2699012756347660,225.6688995361328000,102.6949005126953100,21.9976902008056640,29.5823307037353500,119,124,93,84,61,14786,2156665728,2158124379,2160496256,2147977764,2151111652,2152272402,2153407881,2147675053,3551,2,16,58774
1365203626,5808,125.7699966430664000,22.3421001434326170,35.3325004577636700,233.6567993164062500,91.5540008544921900,22.3404197692871100,29.0560798645019530,121,121,87,83,60,14787,2157531913,2158541696,2160309504,2147973568,2151968064,2152809737,2153566016,2147700251,2536,2,16,60719
1365203725,5809,121.8000030517578100,22.7113990783691400,35.3739013671875000,237.6049041748047000,80.0110321044921900,22.6959896087646500,28.7265090942382800,116,119,87,83,58,14792,2159635949,2160750317,2162567268,2148011190,2153276891,2154047661,2154522304,2147792365,2450,2,15,53007
1365203824,5809,117.8000030517578100,22.7852993011474600,35.3879013061523440,240.9888000488281200,77.3172912597656200,22.7790393829345700,28.5387592315673830,104,117,90,82,58,14780,2158677558,2159224045,2160278381,2147993051,2153285970,2153607204,2153803885,2147733824,2080,2,15,28666
1365203913,5807,113.0999984741211000,22.8976001739501950,35.3954010009765600,242.6143035888672000,73.4602966308593800,22.8980007171630860,28.4172801971435550,90,118,89,83,57,14800,2156528740,2156521508,2156910966,2147963501,2152528923,2152393307,2152448996,2147610861,1685,1,15,30987
1365203979,5811,109.2799987792968800,22.9636001586914060,35.3983993530273440,243.5393981933593800,71.2839584350586000,22.9651508331298830,28.3487491607666000,88,121,90,83,57,14796,2160710445,2160759963,2160853293,2148024576,2155470692,2155325156,2154789842,2147818660,946,2,16,33983
1365204045,5806,105.6299972534179700,22.9974002838134770,35.3941001892089840,244.1996002197265600,70.2994995117187500,22.9955291748046880,28.3071193695068360,83,120,89,83,56,14783,2176792118,2178831771,2180143881,2148356836,2165634916,2166457270,2164492160,2148677613,568,2,15,59332
1365204122,5808,101.6699981689453100,23.0746002197265620,35.3871002197265600,244.5148925781250000,67.9274520874023400,23.0687503814697270,28.2635993957519530,82,121,91,85,56,14787,2181668845,2183702976,2184479369,2148498660,2169741732,2170412608,2167333897,2148923520,807,2,16,26136
1365204191,5805,98.5500030517578100,23.1751003265380860,35.3787002563476560,244.5852050781250000,64.7287902832031200,23.1675300598144530,28.2206592559814450,77,133,89,83,58,14787,2186169078,2188087405,2188304411,2148644635,2173972214,2174354441,2170121526,2149175936,462,2,16,27668
1365204246,5809,96.4000015258789000,23.2441005706787100,35.3774986267089840,244.6786041259765600,62.1642799377441400,23.2467498779296880,28.1843795776367200,75,124,90,84,58,14785,2189932251,2192005888,2191941723,2148749257,2177443648,2177681124,2172486326,2149365787,186,1,16,5316
1365204301,5807,94.6600036621093800,23.5344009399414060,35.3650016784668000,243.1580047607422000,52.8342285156250000,23.5352191925048830,28.1356792449951170,76,124,90,84,58,14773,2192959597,2195199716,2194780790,2148866221,2180692736,2180747812,2174631332,2149547785,561,2,15,58996
1365204356,5806,93.5400009155273400,23.5916004180908200,35.3689994812011700,242.9279937744140600,51.2831916809082000,23.5832099914550780,28.1264991760253900,70,121,89,82,58,14771,2193592000,2195692800,2195069595,2148896868,2182362258,2182111168,2175362706,2149596937,3220,2,16,7203
1365204411,5810,92.5100021362304700,23.6212997436523440,35.3656997680664060,242.6712036132812500,50.2189712524414060,23.6161499023437500,28.1246604919433600,71,123,92,83,56,14769,2195654857,2197906148,2197099629,2148979894,2185027730,2184517120,2176922166,2149730176,2770,1,16,39049
1365204513,5806,89.6999969482421900,23.6623992919921880,35.3602981567382800,242.4044952392578000,48.6481590270996100,23.6647701263427730,28.1170291900634770,69,124,91,83,58,14772,2200559862,2203129088,2202112219,2149288822,2191979163,2190889380,2181140306,2150095396,2385,2,16,56114
1365204568,5811,87.1200027465820300,23.6977996826171880,35.3596000671386700,242.3533020019531200,47.6725502014160160,23.6949806213378900,28.1070594787597660,65,119,89,83,56,14754,2202823414,2205400749,2203991021,2149409225,2195863917,2194261165,2182992054,2150255963,2028,2,16,3094
1365204623,5809,84.2500000000000000,23.7017993927001950,35.3601989746093750,242.5420989990234400,47.4880485534668000,23.7006893157959000,28.0966091156005860,66,122,91,84,59,14750,2208632539,2211460928,2209915675,2149804461,2202735369,2200574034,2187179675,2150626514,2195,1,16,11051
1365204678,5806,81.2300033569336000,23.7000007629394530,35.3596992492675800,242.6215972900390600,47.5844306945800800,23.6977100372314450,28.0941791534423830,66,120,90,85,58,14751,2216462299,2219917641,2218469604,2150322340,2211375844,2208993737,2193150070,2151169810,2255,1,16,2407
1365204733,5808,78.0400009155273400,23.7478008270263670,35.3594017028808600,242.4420013427734400,46.1336097717285160,23.7426395416259770,28.0841197967529300,65,118,88,85,57,14752,2182952941,2182177225,2179241636,2148954578,2181602157,2177966866,2168869440,2149067337,1857,2,16,41830
1365204788,5808,74.7200012207031200,23.7565002441406250,35.3587989807128900,242.4154052734375000,45.8208694458007800,23.7523193359375000,28.0814495086669920,64,119,89,84,58,14757,2184674825,2183618450,2180144018,2149085321,2184649170,2180397074,2170190198,2149186934,1635,1,16,37384
1365204845,5808,71.0800018310546900,23.7658004760742200,35.3600997924804700,242.5323028564453000,45.3543014526367200,23.7667694091796880,28.0704708099365230,65,118,90,84,58,14767,2241012553,2246057234,2244246409,2152964562,2240508964,2235868836,2211279533,2153073910,1683,1,16,21235
1365204900,5816,67.5299987792968800,23.7880992889404300,35.3605995178222660,242.6520996093750000,44.7045211791992200,23.7868995666503900,28.0571498870849600,65,118,91,85,60,14760,2250432932,2255290870,2252607360,2154282102,2253417243,2247443684,2218844726,2153882761,1795,2,16,62080
1365204955,5808,64.1100006103515600,23.7987995147705080,35.3604011535644500,242.6387023925781200,44.1306610107421900,23.8046798706054700,28.0505790710449220,63,118,90,84,55,14758,2246826541,2250503561,2246607853,2154136475,2253663424,2246114496,2216688521,2153783680,1839,2,17,18037
1365205010,5809,60.7400016784668000,23.8223991394042970,35.3608016967773440,242.7257995605468800,43.4994697570800800,23.8242301940917970,28.0388298034667970,61,117,90,84,59,14759,2258221165,2263319131,2260822198,2156963172,2264421046,2256949156,2224936932,2154970843,2218,2,16,4432
1365205065,5806,57.4700012207031250,23.8563995361328120,35.3614997863769500,242.6269989013672000,42.4591407775878900,23.8564701080322270,28.0303993225097660,59,116,90,83,57,14752,2223061138,2222705472,2217055369,2153269147,2231230555,2221840768,2197331227,2152112987,2338,2,16,51349
1365205120,5806,54.4000015258789060,23.8773994445800780,35.3610000610351560,242.6856994628906200,41.7589111328125000,23.8781700134277340,28.0191001892089840,61,116,92,83,55,14755,2286399186,2293726619,2291767003,2162164452,2294939218,2284189430,2242399177,2157359542,2201,1,16,57604
1365205195,5810,51.0299987792968750,23.9167003631591800,35.3587989807128900,242.4617004394531200,40.4216804504394500,23.9196090698242200,28.0123901367187500,57,117,88,83,57,14750,2242136384,2241455570,2233811410,2156264036,2264130221,2251379382,2216657554,2154215241,1851,2,16,24899
1365205262,5808,49.1100006103515600,23.9272003173828120,35.3577995300293000,242.5146026611328000,39.9855995178222660,23.9331302642822270,28.0048294067382800,58,115,93,84,57,14743,2308865947,2316976182,2314552850,2168381613,2330055241,2316789312,2264641005,2160343497,2270,2,16,41617
1365205341,5809,47.2299995422363300,23.9290008544921880,35.3568000793457000,242.5736999511718800,39.8653182983398440,23.9368591308593750,28.0006504058837900,58,117,90,83,57,14750,2315995867,2324579136,2322033170,2170540416,2342056073,2327740077,2271669595,2161384000,2206,1,16,26005
1365205432,5810,45.3499984741210940,23.9309005737304700,35.3559989929199200,242.4456939697265600,39.7691383361816400,23.9398403167724600,28.0051307678222660,56,119,92,84,54,14756,2278320649,2280642587,2273855387,2164638290,2309850130,2294945216,2246825042,2158280658,1703,1,16,50771
1365205519,5807,43.1599998474121100,24.0109004974365230,35.3483009338378900,242.2429046630859400,37.2014808654785160,24.0194606781005860,27.9823303222656250,56,117,91,84,56,14746,2338692498,2348090413,2346234496,2180072996,2370049536,2353258093,2287902729,2164678674,1593,2,16,28033
1365205586,5808,40.9300003051757800,24.0452995300292970,35.3418998718261700,241.8914031982422000,36.1301803588867200,24.0526790618896500,27.9846000671386720,55,119,89,82,60,14757,2350959670,2360597330,2358715300,2183485083,2385906642,2368152594,2296785024,2165853156,1352,1,16,13867
1365205641,5808,39.0099983215332000,24.0921001434326170,35.3376007080078100,241.5121002197265600,34.5455017089843750,24.1018390655517580,27.9818191528320300,55,123,90,85,58,14757,2343612891,2349703661,2345369846,2183924379,2391522742,2372273856,2299227282,2166812425,1156,2,16,12929
1365205696,5809,37.0099983215332000,24.1373004913330080,35.3362007141113300,241.1484069824218800,33.1222190856933600,24.1460094451904300,27.9804706573486330,55,117,93,84,54,14740,2367255725,2375698477,2373876544,2192759305,2413260827,2392791067,2313211446,2169336246,1109,1,16,11975
1365205751,5808,34.9599990844726560,24.1250000000000000,35.3357009887695300,241.0776062011718800,33.1744308471679700,24.1443901062011720,27.9842205047607420,55,121,89,83,57,14746,2382401408,2391150692,2389431259,2200560813,2441885732,2419920000,2331707163,2172917741,1303,1,17,33792
1365205829,5803,31.3600006103515620,24.1551990509033200,35.3372001647949200,240.9561004638672000,32.6661796569824200,24.1601600646972660,27.9834804534912100,53,115,90,84,59,14762,2403553828,2414522523,2417445632,2220199378,2460097060,2435956699,2342310052,2177184731,1307,2,16,27034
1365205884,5805,28.2600002288818360,24.1888999938964840,35.3368988037109400,240.7142028808593800,31.3833293914794920,24.1999797821044920,27.9782199859619140,51,114,90,84,59,14756,2418529965,2428505380,2429787913,2228692105,2490774089,2462077110,2357619026,2180430217,1449,2,17,19657
1365205939,5805,25.1499996185302730,24.2145996093750000,35.3362007141113300,240.6813964843750000,30.5457000732421880,24.2259807586669920,27.9693298339843750,52,114,88,81,52,14762,2431391542,2441590171,2445933540,2250706267,2529518162,2496973129,2381248484,2187239085,1514,1,16,41287
